TimeMST,TemperatureF,Dew PointF,Humidity,Sea Level PressureIn,VisibilityMPH,Wind Direction,Wind SpeedMPH,Gust SpeedMPH,PrecipitationIn,Events,Conditions,WindDirDegrees,DateUTC
12:53 AM,24.8,17.6,74,30.21,10.0,Calm,Calm,-,N/A,,Clear,0,2013-02-27 07:53:00
1:53 AM,25.0,16.0,69,30.29,10.0,North,9.2,-,N/A,,Clear,10,2013-02-27 08:53:00
2:53 AM,21.9,16.0,78,30.30,10.0,NE,8.1,-,N/A,,Clear,40,2013-02-27 09:53:00
3:53 AM,21.0,16.0,81,30.31,10.0,Calm,Calm,-,N/A,,Clear,0,2013-02-27 10:53:00
4:53 AM,19.0,16.0,88,30.34,10.0,ESE,4.6,-,N/A,,Clear,120,2013-02-27 11:53:00
5:53 AM,19.0,15.1,85,30.36,10.0,South,3.5,-,N/A,,Clear,170,2013-02-27 12:53:00
6:53 AM,18.0,14.0,84,30.40,10.0,ESE,3.5,-,N/A,,Clear,120,2013-02-27 13:53:00
7:53 AM,19.4,15.8,86,30.33,10.0,SSE,6.9,-,N/A,,Clear,160,2013-02-27 14:53:00
8:53 AM,24.1,15.1,69,30.44,10.0,SE,11.5,-,N/A,,Clear,130,2013-02-27 15:53:00
9:53 AM,28.0,14.0,56,30.42,10.0,SE,13.8,-,N/A,,Clear,130,2013-02-27 16:53:00
10:53 AM,30.9,16.0,54,30.41,10.0,SE,10.4,-,N/A,,Clear,140,2013-02-27 17:53:00
11:53 AM,32.0,15.1,50,30.41,10.0,SE,10.4,-,N/A,,Clear,140,2013-02-27 18:53:00
12:53 PM,35.1,14.0,42,30.37,10.0,SSE,6.9,-,N/A,,Clear,150,2013-02-27 19:53:00
1:53 PM,36.0,12.0,37,30.35,10.0,SSW,4.6,-,N/A,,Clear,200,2013-02-27 20:53:00
2:53 PM,37.0,10.9,34,30.34,10.0,Calm,Calm,-,N/A,,Clear,0,2013-02-27 21:53:00
3:53 PM,37.0,10.0,33,30.35,10.0,North,3.5,-,N/A,,Clear,10,2013-02-27 22:53:00
4:53 PM,37.9,10.9,33,30.35,10.0,NNW,4.6,-,N/A,,Clear,330,2013-02-27 23:53:00
5:53 PM,35.1,12.0,39,30.38,10.0,Calm,Calm,-,N/A,,Clear,0,2013-02-28 00:53:00
6:53 PM,30.0,18.0,61,30.41,10.0,Calm,Calm,-,N/A,,Clear,0,2013-02-28 01:53:00
7:53 PM,28.9,19.0,67,30.41,10.0,Calm,Calm,-,N/A,,Clear,0,2013-02-28 02:53:00
8:53 PM,27.0,19.0,72,30.40,10.0,ESE,3.5,-,N/A,,Clear,120,2013-02-28 03:53:00
9:53 PM,26.1,17.1,69,30.40,10.0,East,3.5,-,N/A,,Clear,80,2013-02-28 04:53:00
10:53 PM,27.0,16.0,63,30.39,10.0,East,4.6,-,N/A,,Clear,90,2013-02-28 05:53:00
11:53 PM,24.1,16.0,71,30.41,10.0,East,4.6,-,N/A,,Clear,100,2013-02-28 06:53:00